Flag for Germany Weather past 2 weeks in Herford, North Rhine-Westphalia, Germany

Now
39 °F

Chilly.


Feels Like: 29 °F
Forecast: 37 / 45 °F
Wind: 21 mph from West

Location: Bueckeburg

Current Time: Apr 1, 2015 at 2:39:48 AM

Latest Report: Apr 1, 2015 at 1:20 AM


Visibility: 4 mi

Pressure: 29.65 "Hg

Humidity: 75%

Dew point: 32 °F

Location of HerfordLocation

Historic Weather in Herford — Graph

°F

Herford temperature yesterday

Maximum temperature yesterday: 48 °F (at 9:20 AM)
Minimum temperature yesterday: 37 °F (at 3:20 AM)
Average temperature yesterday: 44 °F

Past Weeks' High & Low Weather Summary

 TemperatureHumidityPressure
High63 °F (Mar 25, 3:20 PM)100% (Mar 18, 3:20 AM)30.36 "Hg (Mar 18, 3:20 AM)
Low30 °F (Mar 20, 5:20 AM)39% (Mar 25, 3:20 PM)29.06 "Hg (Mar 31, 7:20 AM)
Average43 °F78%29.91 "Hg
* Reported Mar 17 12:20 AM — Apr 1 1:20 AM, Herford, Weather by CustomWeather, © 2015

Note: Actual official high and low records may vary slightly from our data, if they occured in-between our weather recording intervals... More about our weather records

Advertising

Herford weather history for previous 24 hours

 ConditionsComfort  
Time TempWeatherWind HumidityBarometerVisibility
1:20 AM
Wed, Apr 1
39 °FChilly.21 mph75%29.65 "Hg4 mi
12:20 AM39 °FChilly.18 mph70%29.62 "Hg3 mi
11:20 PM
Tue, Mar 31
41 °FQuite cool.23 mph61%29.62 "Hg4 mi
10:20 PM43 °FQuite cool.23 mph66%29.59 "Hg3 mi
9:20 PM41 °FQuite cool.21 mph76%29.59 "Hg3 mi
8:20 PM41 °FQuite cool.30 mph76%29.56 "Hg3 mi
7:20 PM45 °FSprinkles. Partly sunny.22 mph61%29.53 "HgN/A
6:20 PM45 °FPassing clouds.18 mph71%29.50 "HgN/A
5:50 PM39 °FScattered clouds.31 mph87%29.50 "HgN/A
5:20 PM43 °FScattered showers. Scattered clouds.33 mph71%29.47 "HgN/A
4:20 PM46 °FSprinkles. Partly sunny.28 mph71%29.42 "HgN/A
3:20 PM46 °FPartly sunny.36 mph76%29.33 "HgN/A
2:58 PM45 °FSprinkles. Partly sunny.30 mph81%29.33 "Hg3 mi
2:20 PM48 °FSprinkles. Partly sunny.39 mph76%29.30 "HgN/A
1:20 PM48 °FScattered clouds.38 mph71%29.24 "HgN/A
12:20 PM48 °FBroken clouds.35 mph76%29.21 "HgN/A
11:20 AM48 °FBroken clouds.30 mph76%29.18 "HgN/A
10:20 AM48 °FSprinkles. Broken clouds.30 mph76%29.15 "HgN/A
10:03 AM48 °FSprinkles. Broken clouds.31 mph71%29.15 "HgN/A
9:20 AM48 °FBroken clouds.31 mph76%29.12 "HgN/A
8:20 AM46 °FLight rain. Broken clouds.28 mph82%29.12 "HgN/A
7:46 AM46 °FRain. Fog.31 mph93%29.09 "Hg2 mi
7:20 AM46 °FRain. Fog.17 mph93%29.06 "Hg3 mi
6:20 AM43 °FRain. Fog.22 mph93%29.09 "Hg2 mi
5:20 AM39 °FChilly.23 mph87%29.18 "Hg2 mi
4:20 AM37 °FChilly.15 mph87%29.30 "Hg2 mi
3:20 AM37 °FChilly.13 mph93%29.42 "Hg2 mi
2:20 AMN/A15 mphN/AN/A2 mi
Weather by CustomWeather, © 2015

See weather overviewHow to use our weather pages